Weather History for KORS - September, 2012

Change the Weather History Date:

Tuesday, September 4, 2012

  Actual Average (KBLI) Record (KBLI)
Temperature  
Mean Temperature 57 °F 60 °F  
Max Temperature 64 °F 70 °F 83 °F (1955)
Min Temperature 50 °F 50 °F 38 °F (1952)
Degree Days  
Heating Degree Days 8 5  
Month to date heating degree days 19  
Cooling Degree Days 0 0  
Month to date cooling degree days 0  
Year to date cooling degree days 40  
Growing Degree Days 7 (Base 50)    
Moisture  
Dew Point 54 °F    
Average Humidity 86    
Maximum Humidity 100    
Minimum Humidity 68    
Precipitation  
Precipitation 0.00 in 0.05 in 0.44 in (1960)
Month to date precipitation 0.22  
Year to date precipitation 20.57  
Sea Level Pressure  
Sea Level Pressure 30.16 in    
Wind  
Wind Speed 2 mph (NNW)    
Max Wind Speed 12 mph    
Max Gust Speed -    
Visibility 10 miles    
Events      
T = Trace of Precipitation, MM = Missing Value Source: NWS Daily Summary

Daily Weather History Graph

Daily Weather History Graph

Search for Another Location

Airport or City:

Trip Planner

Search our weather history database for the weather conditions in past years. The results will help you decide how hot, cold, wet, or windy it might be!

Date:

Astronomy

Sep. 04, 2012 Rise Set
Actual Time 6:33 AM PDT 7:46 PM PDT
Civil Twilight 6:01 AM PDT 8:18 PM PDT
Nautical Twilight 5:22 AM PDT 8:57 PM PDT
Astronomical Twilight 4:40 AM PDT 9:39 PM PDT
Moon 9:13 PM PDT (9/4) 11:13 AM PDT (9/4)
Length of Visible Light 14h 17m
Length of Day
13h 12m
Waning Gibbous, 83% of the Moon is Illuminated
Sep 4
Waning Gibbous
Sep 8
Last Quarter
Sep 15
New
Sep 22
First Quarter
Sep 29
Full

Hourly Weather History & Observations

Time (PDT) Temp. Dew Point Humidity Pressure Visibility Wind Dir Wind Speed Gust Speed Precip Events Conditions
12:15 AM 55.4 °F 50.0 °F 82% 30.14 in 10.0 mi North - - N/A   Clear
12:35 AM 53.6 °F 50.0 °F 88% 30.15 in 10.0 mi North - - N/A   Clear
12:55 AM 53.6 °F 50.0 °F 88% 30.15 in 10.0 mi Calm Calm - N/A   Clear
1:15 AM 53.6 °F 50.0 °F 88% 30.15 in 10.0 mi Calm Calm - N/A   Clear
1:35 AM 51.8 °F 50.0 °F 94% 30.15 in 10.0 mi Calm Calm - N/A   Clear
1:55 AM 51.8 °F 50.0 °F 94% 30.16 in 10.0 mi Calm Calm - N/A   Clear
2:15 AM 51.8 °F 50.0 °F 94% 30.16 in 10.0 mi North - - N/A   Clear
2:35 AM 50.0 °F 50.0 °F 100% 30.16 in 10.0 mi Calm Calm - N/A   Clear
2:55 AM 51.8 °F 50.0 °F 94% 30.17 in 10.0 mi Calm Calm - N/A   Clear
3:15 AM 51.8 °F 50.0 °F 94% 30.17 in 10.0 mi Calm Calm - N/A   Clear
3:35 AM 50.0 °F 50.0 °F 100% 30.17 in 10.0 mi Calm Calm - N/A   Clear
3:55 AM 50.0 °F 50.0 °F 100% 30.17 in 10.0 mi Calm Calm - N/A   Clear
4:15 AM 50.0 °F 50.0 °F 100% 30.17 in 10.0 mi Calm Calm - N/A   Clear
4:35 AM 50.0 °F 50.0 °F 100% 30.17 in 10.0 mi Calm Calm - N/A   Clear
4:55 AM 53.6 °F 50.0 °F 88% 30.18 in 10.0 mi Calm Calm - N/A   Clear
5:15 AM 57.2 °F 53.6 °F 88% 30.18 in 10.0 mi North 5.8 mph - N/A   Clear
5:35 AM 57.2 °F 53.6 °F 88% 30.18 in 10.0 mi North 5.8 mph - N/A   Clear
5:55 AM 57.2 °F 53.6 °F 88% 30.19 in 10.0 mi NNW 6.9 mph - N/A   Mostly Cloudy
6:15 AM 57.2 °F 55.4 °F 94% 30.19 in 10.0 mi NNW 8.1 mph - N/A   Overcast
6:35 AM 57.2 °F 55.4 °F 94% 30.19 in 10.0 mi NNW 10.4 mph - N/A   Overcast
6:55 AM 57.2 °F 55.4 °F 94% 30.19 in 10.0 mi NNW 11.5 mph - N/A   Overcast
7:15 AM 57.2 °F 55.4 °F 94% 30.20 in 9.0 mi NNW 9.2 mph - N/A   Overcast
7:35 AM 57.2 °F 55.4 °F 94% 30.20 in 9.0 mi NW 5.8 mph - N/A   Overcast
8:15 AM 57.2 °F 55.4 °F 94% 30.21 in 10.0 mi Calm Calm - N/A   Overcast
8:35 AM 57.2 °F 55.4 °F 94% 30.21 in 10.0 mi North - - N/A   Overcast
8:55 AM 57.2 °F 53.6 °F 88% 30.21 in 10.0 mi NNW 4.6 mph - N/A   Overcast
9:15 AM 57.2 °F 55.4 °F 94% 30.21 in 10.0 mi Calm Calm - N/A   Overcast
9:35 AM 57.2 °F 55.4 °F 94% 30.21 in 9.0 mi Calm Calm - N/A   Overcast
9:55 AM 57.2 °F 55.4 °F 94% 30.21 in 10.0 mi North 4.6 mph - N/A   Overcast
10:15 AM 57.2 °F 55.4 °F 94% 30.21 in 10.0 mi North 5.8 mph - N/A   Overcast
10:35 AM 57.2 °F 53.6 °F 88% 30.21 in 10.0 mi North 5.8 mph - N/A   Overcast
10:55 AM 59.0 °F 55.4 °F 88% 30.22 in 10.0 mi North 4.6 mph - N/A   Overcast
11:15 AM 59.0 °F 55.4 °F 88% 30.22 in 10.0 mi Calm Calm - N/A   Overcast
11:35 AM 59.0 °F 55.4 °F 88% 30.22 in 10.0 mi North 9.2 mph - N/A   Overcast
11:55 AM 59.0 °F 55.4 °F 88% 30.22 in 10.0 mi NNW 8.1 mph - N/A   Overcast
12:15 PM 60.8 °F 55.4 °F 82% 30.21 in 10.0 mi NNW 8.1 mph - N/A   Mostly Cloudy
12:35 PM 62.6 °F 55.4 °F 77% 30.21 in 10.0 mi NNW 8.1 mph - N/A   Clear
1:15 PM 62.6 °F 55.4 °F 77% 30.20 in 10.0 mi North 8.1 mph - N/A   Clear
1:35 PM 62.6 °F 55.4 °F 77% 30.20 in 10.0 mi North 8.1 mph - N/A   Clear
1:55 PM 62.6 °F 55.4 °F 77% 30.20 in 10.0 mi North 6.9 mph - N/A   Clear
2:15 PM 62.6 °F 55.4 °F 77% 30.20 in 10.0 mi NW 3.5 mph - N/A   Clear
2:35 PM 62.6 °F 55.4 °F 77% 30.19 in 10.0 mi North 5.8 mph - N/A   Clear
2:55 PM 62.6 °F 55.4 °F 77% 30.19 in 10.0 mi North 5.8 mph - N/A   Clear
3:15 PM 62.6 °F 55.4 °F 77% 30.18 in 10.0 mi North 4.6 mph - N/A   Clear
3:35 PM 64.4 °F 55.4 °F 73% 30.17 in 10.0 mi Calm Calm - N/A   Clear
3:55 PM 62.6 °F 55.4 °F 77% 30.17 in 10.0 mi North 3.5 mph - N/A   Clear
4:15 PM 64.4 °F 55.4 °F 73% 30.16 in 10.0 mi NW 3.5 mph - N/A   Clear
4:35 PM 64.4 °F 55.4 °F 73% 30.15 in 10.0 mi North 3.5 mph - N/A   Clear
4:55 PM 64.4 °F 53.6 °F 68% 30.15 in 10.0 mi North 4.6 mph - N/A   Clear
5:15 PM 64.4 °F 55.4 °F 73% 30.15 in 10.0 mi Calm Calm - N/A   Clear
5:35 PM 62.6 °F 55.4 °F 77% 30.14 in 10.0 mi North 5.8 mph - N/A   Clear
5:55 PM 64.4 °F 55.4 °F 73% 30.14 in 10.0 mi NNW 3.5 mph - N/A   Clear
6:15 PM 64.4 °F 55.4 °F 73% 30.13 in 10.0 mi Calm Calm - N/A   Clear
6:35 PM 64.4 °F 55.4 °F 73% 30.12 in 10.0 mi Calm Calm - N/A   Clear
6:55 PM 64.4 °F 55.4 °F 73% 30.12 in 10.0 mi Calm Calm - N/A   Clear
7:15 PM 62.6 °F 55.4 °F 77% 30.11 in 10.0 mi Calm Calm - N/A   Clear
7:35 PM 59.0 °F 55.4 °F 88% 30.11 in 10.0 mi Calm Calm - N/A   Clear
7:55 PM 59.0 °F 53.6 °F 82% 30.11 in 10.0 mi Calm Calm - N/A   Clear
8:15 PM 59.0 °F 53.6 °F 82% 30.11 in 10.0 mi Calm Calm - N/A   Clear
8:35 PM 57.2 °F 53.6 °F 88% 30.11 in 10.0 mi Calm Calm - N/A   Clear
8:55 PM 57.2 °F 53.6 °F 88% 30.11 in 10.0 mi North - - N/A   Clear
9:15 PM 57.2 °F 53.6 °F 88% 30.11 in 10.0 mi Calm Calm - N/A   Clear
9:35 PM 57.2 °F 53.6 °F 88% 30.11 in 10.0 mi Calm Calm - N/A   Clear
9:55 PM 57.2 °F 53.6 °F 88% 30.10 in 10.0 mi North - - N/A   Clear
10:15 PM 55.4 °F 51.8 °F 88% 30.10 in 10.0 mi Calm Calm - N/A   Clear
10:35 PM 55.4 °F 51.8 °F 88% 30.10 in 10.0 mi Calm Calm - N/A   Clear
10:55 PM 55.4 °F 51.8 °F 88% 30.10 in 10.0 mi Calm Calm - N/A   Clear
11:15 PM 53.6 °F 51.8 °F 94% 30.10 in 10.0 mi North - - N/A   Clear
11:55 PM 53.6 °F 51.8 °F 94% 30.10 in 10.0 mi Calm Calm - N/A   Clear